Starlink 30168

operational
NORAD ID: 57513 Int'l Des: 2023-113 Owner: SPXS Country: US Constellation: starlink
LEOCIRCULAR

Starlink 30168について

説明を読み込み中...

リアルタイム位置

3D地球を読み込み中...

次回通過

高度履歴

Altitude vs Time

uPlot chart will show altitude changes over time

軌道要素

1 57513U 23113U 25353.64171230 .00000383 00000-0 43442-4 0 9998
2 57513 43.0032 92.7164 0001363 284.4084 75.6607 15.02534522131451
Epoch: Dec 19, 2025 • Age: 16 hours

現在のステータス

高度 565.0 km
速度 7.58 km/s
衛星直下点 -26.54°S, 139.79°W
打ち上げ日 Aug 7, 2023
運用期間 2.3 years
タイプ internet

技術仕様

分類 Payload
質量 730.00 kg
乾燥質量 700.00 kg
総質量 730.00 kg
長さ 0.30 m
直径 4.10 m
スパン 29.00 m
形状 Box + pan
製造者 SPXS
バスタイプ Starlink V2M
フェーズステータス In Orbit
所有者/国 SPXS/US

大規模コンステレーション

Loading constellations...